Regional Weather Roundup
Issued by NWS

Home | Current Version | Previous Version | Text Only | Print | Product List | Glossary On
Versions: 1 2 3 4 5 6 7 8 9 10 11 12 13 14 15 16 17 18 19 20 21 22 23 24 25 26
000
ASUS42 KTBW 260216
RWRFL
FLORIDA REGIONAL WEATHER ROUNDUP
NATIONAL WEATHER SERVICE TAMPA BAY RUSKIN FL
1000 PM EDT WED APR 25 2018

NOTE: "FAIR" INDICATES FEW OR NO CLOUDS BELOW 12,000 FEET WITH NO
SIGNIFICANT WEATHER AND/OR OBSTRUCTIONS TO VISIBILITY.

FLZ001>010-012>015-112-114-115-260300-
PANHANDLE FLORIDA

CITY           SKY/WX    TMP DP  RH WIND       PRES   REMARKS
PENSACOLA      FAIR      71  53  52 N6        29.95R
PENSACOLA NAS  FAIR      68  58  70 W5        29.95R
MILTON NAS     FAIR      64  54  69 N6        29.96R
CRESTVIEW      FAIR      60  55  83 CALM      29.96R
DUKE FIELD     CLEAR     65  55  69 N5        29.94R
VALPARAISO     CLEAR     68  55  64 N5        29.93R
TRI COUNTY     FAIR      62  59  90 CALM      29.95R
PANAMA CITY    FAIR      65  61  87 CALM      29.92S
TYNDALL AFB    FAIR      66  62  87 NW6       29.93R
APALACHICOLA   FAIR      65  62  90 NW5       29.92S

STATION/POSITION SKY/WX   TEMP    WIND        PRES    WAVE   SWELL
                          AIR SEA DIR/SP/G            HT/PER HT/PER
                          (F)     (DEG/KT/KT) (MB)    (FT/S) (FT/S)
30.1N   87.6W              70     270/ 12/ 14 1014.3R   1/ 3
29.2N   88.2W                 74  270/ 10/ 12 1014.9R   1
28.8N   86.0W              70 74  290/ 10/ 14 1013.8R   2/ 4
PANAMA CITY BEAC           69 71  290/ 12/ 13 1013.8R
TOWER C                    69     300/ 13/ 15 1013.6R

$$
FLZ011-016>038-118-127-128-134-139-239-260300-
NORTH FLORIDA

CITY           SKY/WX    TMP DP  RH WIND       PRES   REMARKS
MARIANNA       FAIR      67  56  67 N3        29.93R
TALLAHASSEE    FAIR      71  55  56 N7        29.92R
PERRY          FAIR      65  62  87 CALM      29.92S
LIVE OAK       PTCLDY    66  61  82 CALM      29.93R
CROSS CITY     FAIR      64  62  94 SW5       29.93R
LAKE CITY      MOCLDY    64  59  82 W7        29.93R
GAINESVILLE    FAIR      67  58  72 W8        29.95R
WILLISTON      CLEAR     66  59  77 CALM      29.94R
PALATKA        MOCLDY    68  57  68 W8        29.93R
MAYPORT NAS    MOCLDY    75  58  55 W6        29.89R
JACKSONVILLE   MOCLDY    71  59  65 W3        29.89R
JAX NAS        MOCLDY    74  56  53 W7        29.90R
JAX CECIL      CLOUDY    64  59  82 VRB5      29.90R
FERNANDINA BEA CLOUDY    73  56  56 CALM      29.88R
ST AUGUSTINE   MOCLDY    71  58  63 W6        29.91R
PALM COAST     FAIR      69  59  71 W7        29.92R

STATION/POSITION SKY/WX   TEMP    WIND        PRES    WAVE   SWELL
                          AIR SEA DIR/SP/G            HT/PER HT/PER
                          (F)     (DEG/KT/KT) (MB)    (FT/S) (FT/S)
SHELL POINT      NOT AVBL
KEATON BEACH               71     250/ 13/ 14 1013.4R
CEDAR KEY                  69     290/  8/ 11 1014.2R
FERNANDINA                 72 69  300/  2/  4 1013.0R
30.7N   81.3W                 69                N/A     2/ 9
MAYPORT                    75 68  260/  5/  6 1012.2R
31.4N   80.9W              69 67  300/  6/  6 1011.7R   3/ 9   2/ 9
ST AUGUSTINE               72 67  230/  8/ 13 1013.2R

$$
FLZ040-043>046-052-053-057-058-063-144-260300-
INTERIOR CENTRAL FLORIDA

CITY           SKY/WX    TMP DP  RH WIND       PRES   REMARKS
OCALA          FAIR      65  58  78 SW5       29.95R
LEESBURG       FAIR      68  60  75 W7        29.95R
SANFORD        FAIR      70  57  63 W14       29.92R
ORLANDO EXEC   FAIR      71  57  61 W14       29.93R
ORLANDO INTL   FAIR      70  57  63 W13       29.93R
KISSIMMEE      FAIR      68  57  68 NW10      29.95R
WINTER HAVEN   FAIR      68  57  68 W10       29.96R
LAKELAND       CLEAR     66  55  68 NW10      29.95R
BARTOW           N/A    N/A N/A N/A MISG        N/A
SEBRING        FAIR      71  54  55 W3        29.94R
OKEECHOBEE     FAIR      68  55  64 W6        29.92R

$$
FLZ041-047-054-059-064-141-147-260300-
EAST CENTRAL FLORIDA

CITY           SKY/WX    TMP DP  RH WIND       PRES   REMARKS
DAYTONA BEACH  CLOUDY    69  61  75 W8        29.92R
DELAND         FAIR      70  59  68 W8        29.93R
NEW SMYRNA BEA PTCLDY    70  57  64 CALM      29.91R
JFK SPACE CTR  FAIR      70  59  69 W6        29.90R
CAPE CANAVERAL FAIR      73  59  61 W7        29.89R
PATRICK AFB    FAIR      74  57  56 W9        29.91R
MELBOURNE      FAIR      73  54  51 W12       29.91R
VERO BEACH     FAIR      68  58  70 W6        29.91R
FT PIERCE      FAIR      67  62  84 W5        29.92R

STATION/POSITION SKY/WX   TEMP    WIND        PRES    WAVE   SWELL
                          AIR SEA DIR/SP/G            HT/PER HT/PER
                          (F)     (DEG/KT/KT) (MB)    (FT/S) (FT/S)
28.5N   80.2W              75 74  190/ 10/ 12 1012.5R   4/ 9   3/ 9
28.9N   78.5W              74 76  200/  8/ 12 1013.2R   5/ 9   5/ 9
TRIDENT PIER               74 77  260/  5/  6 1013.9R
28.4N   80.5W                 75                N/A     2/ 8
27.5N   80.2W                 75                N/A     3/11   2/11

$$
FLZ050-056-061-142-242-148-248-149-249-151-251-155-255-
160-260-260300-
WEST CENTRAL FLORIDA

CITY           SKY/WX    TMP DP  RH WIND       PRES   REMARKS
CRYSTAL RIVER  FAIR      64  59  82 W3        29.95R
INVERNESS      FAIR      61  61 100 CALM      29.96R
BROOKSVILLE    FAIR      59  55  87 W3        29.96R
CLEARWATER AIR FAIR      68  55  64 NW8       29.96R
ST PETE CLEARW FAIR      70  58  65 W6        29.96R
TAMPA INTL     FAIR      69  57  65 NW7       29.96R
TAMPA EXEC     FAIR      64  57  77 CALM      29.96R
PLANT CITY     FAIR      68  57  68 W6        29.97R
MACDILL AFB    FAIR      68  58  69 NW7       29.95R
PETER O KNIGHT MOCLDY    68  59  73 NW5       29.96R
ST PETERSBURG  FAIR      70  59  68 NW10      29.94R
SARASOTA       FAIR      67  59  75 NW8       29.94R
VENICE         FAIR      72  61  68 NW12      29.96R

STATION/POSITION SKY/WX   TEMP    WIND        PRES    WAVE   SWELL
                          AIR SEA DIR/SP/G            HT/PER HT/PER
                          (F)     (DEG/KT/KT) (MB)    (FT/S) (FT/S)
27.3N   84.2W                 73                N/A     2/ 5
CLEARWATER BEACH           70 78  280/ 12/ 13 1014.6R
MIDDLE TAMPA BAY           70     330/ 13/ 17 1014.2R
VENICE                     70 78  300/ 13/ 15 1014.5R

$$
FLZ066-069-070-075>078-162-262-165-265-260300-
SOUTHWEST FLORIDA AND KEYS

CITY           SKY/WX    TMP DP  RH WIND       PRES   REMARKS
PUNTA GORDA    FAIR      70  57  63 NW7       29.97R
FT MYERS       FAIR      72  61  68 NW7       29.94R
SOUTHWEST INTL FAIR      70  63  78 NW3       29.95R
NAPLES         FAIR      74  64  71 NW9       29.95R
MARCO ISLAND   MOCLDY    72  64  76 NW5       29.96R
IMMOKALEE      FAIR      70  61  73 W5        29.96R
MARATHON       FAIR      77  63  61 NW5       29.95R
KEY WEST NAS   FAIR      75  63  66 NW3       29.96R
KEY WEST INTL  FAIR      76  65  68 NW3       29.96R

STATION/POSITION SKY/WX   TEMP    WIND        PRES    WAVE   SWELL
                          AIR SEA DIR/SP/G            HT/PER HT/PER
                          (F)     (DEG/KT/KT) (MB)    (FT/S) (FT/S)
NAPLES                     74 81              1013.9R
26.0N   85.6W              75      CALM  /  2 1014.2
DRY TORTUGAS               75     340/  4/  4 1014.7R
SAND KEY                   76                 1014.5R
SOMBRERO KEY               76     270/  5/  7 1013.7R
LONG KEY                   76 84  340/  8/  9 1014.2R
MOLASSES REEF              77 78  320/  6/  7 1014.5R

$$
FLZ067-068-071>074-168-172>174-260300-
SOUTHEAST FLORIDA

CITY           SKY/WX    TMP DP  RH WIND       PRES   REMARKS
W PALM BEACH   FAIR      74  65  73 S5        29.93R
FT LAUDER-EXEC FAIR      77  69  76 NW3       29.92R
FT LAUDERDALE  FAIR      77  70  79 W6        29.91R
POMPANO BEACH  FAIR      77  70  79 NE9       29.92R
PEMBROKE PINES FAIR      76  64  66 SW10      29.94R
OPA LOCKA      FAIR      74  63  68 W12       29.94R
MIAMI          FAIR      73  63  70 W10       29.94R
WEST KENDALL   FAIR      72  62  71 W10       29.94R
HOMESTEAD      FAIR      71  62  71 SW8       29.94R

STATION/POSITION SKY/WX   TEMP    WIND        PRES    WAVE   SWELL
                          AIR SEA DIR/SP/G            HT/PER HT/PER
                          (F)     (DEG/KT/KT) (MB)    (FT/S) (FT/S)
PORT EVERGLADES            78     260/  6/ 10 1013.0R
VIRGINIA KEY               76 82  240/ 13/ 16 1012.9R
LAKE WORTH                 76 78  180/ 12/ 13 1014.1R
FOWEY ROCKS                75 80  250/ 18/ 19 1014.5R
SETTLEMENT POINT           74     170/  6/  8 1014.0R

$$





USA.gov is the U.S. government's official web portal to all federal, state and local government web resources and services.